Theta_e
328 327 328 324 312 315 311 313 321 319 317 322 331 329 326 327 322 310 341 346 346 346 350 353 359 361 359 356 355 354 355 355 354 353 353 353 353 355 357 357 357 356 355 355 354 353 352 351 349
320 319 321 315 308 304 309 319 316 320 323 326 333 332 327 322 327 336 337 347 346 346 346 351 358 359 358 357 355 354 355 353 353 355 353 353 353 355 356 357 357 355 355 354 352 350 349 348 347
327 323 312 305 307 306 308 318 320 321 325 326 323 332 332 322 333 337 345 347 345 342 346 351 358 358 356 355 355 354 354 354 353 353 353 353 353 355 356 356 356 354 352 351 350 348 347 347 348
312 314 314 303 305 315 315 317 319 322 325 326 330 326 332 331 332 342 346 345 342 342 346 355 358 357 357 355 354 353 353 354 355 354 353 353 353 356 356 356 355 353 351 349 347 347 347 348 350
312 308 301 298 302 315 320 322 324 321 324 328 333 327 329 334 344 345 344 345 342 343 348 351 357 357 355 355 354 353 354 356 356 355 353 353 354 355 355 355 354 352 349 347 346 348 349 350 351
306 306 298 296 310 319 321 324 323 322 322 327 327 327 326 332 340 342 344 344 343 343 346 349 356 357 356 355 354 354 356 356 356 356 355 354 355 355 355 355 354 352 350 348 348 350 351 352 353
304 300 299 301 304 312 319 326 321 321 321 323 331 321 324 328 333 340 342 343 342 343 344 345 348 351 355 355 355 356 356 356 356 356 356 355 355 355 355 355 354 353 352 352 351 352 353 353 354
309 303 300 303 303 309 322 323 324 322 320 331 331 321 318 325 335 337 343 341 340 342 343 342 344 346 347 348 353 355 355 356 356 356 356 356 355 355 356 354 354 354 353 353 353 353 354 354 354
313 300 300 301 303 309 322 319 325 329 324 324 332 328 328 331 333 332 340 338 339 340 340 340 342 342 343 345 350 354 354 354 355 354 356 353 347 348 350 352 353 355 355 354 354 354 354 355 355
305 299 302 308 308 310 313 318 322 322 323 322 328 330 330 331 331 328 335 335 336 335 338 339 338 340 339 346 346 346 348 348 347 348 348 347 345 342 347 350 354 355 355 355 354 354 355 355 350
305 303 309 311 311 315 312 316 322 316 317 324 327 328 328 328 326 326 327 336 336 336 337 338 338 338 336 341 346 345 345 346 346 345 345 345 345 342 345 344 346 347 352 346 347 345 345 345 346
298 307 310 312 314 311 309 317 317 318 319 328 330 333 333 329 325 324 326 329 337 337 337 337 337 337 336 343 342 343 343 344 344 344 344 342 339 340 341 340 342 344 342 339 338 340 342 343 346
298 304 309 312 311 308 313 310 313 318 325 329 330 330 331 330 326 324 326 329 332 336 337 337 338 338 337 341 338 341 341 342 343 343 346 345 344 339 339 336 339 340 340 340 339 342 348 346 345
302 303 306 308 308 307 308 311 311 320 326 326 326 325 325 330 329 326 324 326 329 330 335 338 338 339 343 341 336 339 341 341 342 343 346 345 343 341 340 339 337 339 340 339 340 343 346 345 346
303 299 302 304 306 305 308 307 309 318 324 323 323 322 326 330 332 328 325 326 330 330 334 339 338 340 344 342 341 341 343 341 343 344 345 344 343 343 340 341 345 343 346 346 349 348 349 347 345
299 298 292 300 304 307 306 300 310 315 322 321 324 325 328 330 330 328 328 329 331 334 334 341 343 341 342 342 344 343 342 339 338 343 347 345 343 342 343 342 344 347 348 349 350 345 343 346 341
296 293 295 298 304 304 304 300 310 312 312 314 321 326 329 330 327 327 330 331 333 336 336 338 344 342 344 344 344 344 340 339 341 340 345 344 347 345 349 345 346 350 348 348 346 345 344 341 340
292 293 295 296 301 303 300 302 307 311 311 310 314 314 323 326 325 328 330 332 334 338 337 338 343 344 343 348 344 342 341 342 339 343 346 345 346 349 346 347 349 349 348 345 346 343 343 341 339
301 298 297 300 304 300 298 299 303 306 304 306 307 313 312 317 326 328 330 333 334 339 338 339 340 345 344 347 343 341 340 341 340 344 348 346 347 349 350 347 347 349 346 344 344 341 339 337 334
300 296 296 300 304 299 299 297 301 303 304 304 306 306 314 314 316 326 328 333 334 337 341 338 341 346 345 345 345 343 340 340 340 340 347 349 349 348 348 349 349 349 345 344 341 338 332 332 328
297 295 296 297 301 301 300 296 300 304 305 306 312 315 317 319 323 329 333 333 335 336 339 341 341 348 346 345 346 342 340 339 338 339 343 349 350 352 351 351 350 348 344 341 337 333 326 320 325
294 303 303 303 298 291 300 288 297 303 305 306 308 311 314 316 318 322 327 328 331 334 339 342 343 344 348 346 345 341 340 337 340 339 340 348 353 354 353 351 350 347 343 334 328 328 325 318 316
303 306 303 302 297 295 297 291 295 302 299 303 307 308 309 311 312 313 314 319 325 331 333 331 340 346 347 348 347 343 339 340 340 340 348 350 350 350 351 347 346 338 336 330 325 322 322 319 317
307 302 300 298 294 288 294 293 294 296 298 300 303 304 306 308 309 310 312 313 319 324 329 326 335 340 335 333 333 337 334 340 341 343 349 348 348 347 348 348 340 335 329 326 324 323 319 318 317
302 297 289 288 287 288 301 295 294 299 301 301 300 302 304 306 306 306 307 308 311 317 324 327 326 327 330 334 335 328 325 325 341 344 349 345 345 342 342 341 336 330 325 324 323 321 319 316 313
298 295 289 284 286 289 302 296 295 301 302 302 301 301 302 303 304 306 306 308 309 312 319 326 325 325 324 326 329 327 326 328 333 344 347 345 344 341 339 335 330 327 326 324 323 320 318 316 313
297 291 294 290 292 288 293 294 296 298 297 297 298 299 299 300 303 305 306 306 308 309 310 320 324 325 325 326 326 324 323 331 332 343 345 345 342 337 334 331 328 326 325 323 319 318 317 314 313
296 297 289 289 283 282 287 287 286 289 290 293 294 295 298 301 302 304 305 306 308 307 309 311 314 321 325 328 331 330 339 343 346 346 342 343 339 333 329 327 326 325 325 323 319 315 314 314 313
291 289 290 290 289 283 283 283 291 289 289 290 293 295 295 297 298 300 302 303 305 305 305 306 307 308 313 319 322 325 329 337 344 343 340 339 331 328 328 326 324 323 321 322 318 316 315 312 311
294 290 288 282 282 284 283 281 291 290 290 291 291 292 293 294 294 295 295 296 298 299 300 301 303 304 307 310 313 317 320 327 339 333 334 331 329 328 328 325 322 323 322 322 319 316 316 312 311
Wind_Speed
4 4 3 2 7 6 7 10 15 19 16 10 17 12 11 10 5 6 9 20 22 15 12 14 18 17 16 17 16 15 13 13 13 13 14 13 12 12 11 11 11 12 12 10 10 9 8 7 6
4 4 2 2 7 5 2 8 20 20 20 22 17 15 12 8 9 20 11 16 20 17 10 12 18 17 17 16 16 14 14 14 14 13 13 13 12 11 10 9 9 10 10 9 8 7 6 5 5
5 5 3 5 5 7 9 12 22 27 20 15 3 10 6 4 18 6 21 19 18 15 11 13 18 17 17 17 16 15 15 14 14 13 13 12 11 10 8 8 8 8 7 6 5 5 3 3 4
4 2 5 3 6 5 14 18 14 8 9 10 11 8 6 9 6 15 22 20 18 13 11 15 17 17 17 17 16 15 15 14 14 13 13 11 11 8 8 7 6 6 5 3 2 2 2 4 7
2 2 5 5 9 7 10 21 5 8 4 3 12 7 4 7 25 25 22 19 19 13 10 12 16 16 17 17 16 15 15 12 12 11 12 11 10 7 7 6 5 5 3 2 0 3 4 6 8
4 1 5 7 2 9 13 9 7 3 4 2 14 10 4 6 22 18 19 20 19 16 11 10 15 15 15 16 16 15 13 13 12 11 10 10 9 7 6 5 4 4 3 2 4 5 6 9 11
4 2 8 13 15 10 12 17 8 7 10 5 13 7 6 6 11 15 16 18 17 16 12 8 8 12 15 14 14 14 13 11 11 10 10 9 8 7 7 6 5 5 4 6 6 8 10 10 12
4 2 11 14 10 0 13 20 13 21 10 3 22 9 10 9 10 12 21 18 17 14 12 8 7 6 6 8 15 14 13 12 11 10 10 9 9 9 8 8 8 8 8 9 10 12 12 11 12
7 4 11 12 9 9 20 11 10 3 4 3 9 13 21 15 11 10 19 17 16 14 13 10 9 7 7 6 9 12 14 13 12 11 11 8 4 6 8 9 12 14 13 14 14 14 13 11 13
3 4 11 10 8 8 5 16 17 3 10 10 12 16 19 18 13 10 18 17 18 17 16 14 12 11 10 10 8 6 7 5 5 5 6 5 6 6 10 12 17 16 15 14 15 15 14 11 6
9 12 15 18 10 7 4 5 6 11 13 16 2 5 8 10 11 10 11 19 18 20 15 17 16 14 13 10 7 5 4 4 5 8 8 8 6 6 7 6 5 4 11 5 8 8 5 8 6
6 14 16 19 14 6 3 9 2 2 6 25 20 15 2 7 10 11 12 15 19 19 20 19 19 16 15 10 9 9 7 7 7 9 10 7 5 5 6 4 5 6 4 5 6 5 6 7 5
6 13 15 16 11 5 2 3 6 9 11 21 21 19 18 12 11 9 11 11 16 19 19 20 19 16 13 13 9 10 10 9 11 10 11 8 6 5 4 4 4 5 5 5 6 6 4 5 3
10 9 15 11 11 6 2 5 6 9 11 18 19 22 16 8 12 8 9 10 13 14 18 20 20 15 16 13 13 11 10 11 10 9 10 11 6 5 4 3 3 3 3 3 3 2 1 1 1
10 8 11 7 8 6 6 7 5 10 14 15 17 17 19 16 17 13 11 9 14 10 14 20 19 15 17 15 13 10 11 11 10 10 12 10 7 6 5 3 2 4 3 5 2 3 3 3 3
8 6 5 9 8 7 3 8 8 7 22 19 22 19 18 18 22 13 13 12 12 12 13 18 17 16 11 10 7 5 7 6 6 8 8 12 9 8 5 4 4 4 2 2 3 2 2 2 3
6 6 8 11 12 8 8 8 8 11 7 8 19 18 18 20 16 13 17 18 14 16 15 18 17 17 13 9 6 5 7 6 6 5 8 11 10 8 6 5 5 3 2 2 3 2 2 2 3
9 5 8 8 11 15 9 10 10 16 9 7 5 9 19 19 21 20 19 20 18 18 20 19 15 18 16 8 5 3 2 3 5 7 7 11 9 10 8 6 6 4 3 3 3 2 0 2 2
11 5 7 7 9 7 3 2 5 5 3 8 7 5 6 11 15 15 16 19 17 15 18 18 16 17 14 10 10 9 11 5 6 6 10 13 10 11 10 7 6 5 5 4 5 3 3 2 1
5 6 9 9 9 4 7 4 5 6 5 4 8 5 8 7 10 10 14 17 18 20 22 21 19 18 16 13 12 9 10 6 9 4 6 12 13 11 9 9 7 6 5 6 5 4 2 1 1
4 3 8 8 8 7 6 8 7 9 6 11 25 24 26 24 26 26 26 18 11 10 17 18 20 19 18 17 10 5 2 1 4 8 5 10 14 12 10 9 6 6 5 5 5 5 6 3 1
6 9 5 4 4 1 6 4 7 17 23 25 24 24 21 24 23 26 27 30 28 25 18 19 13 14 19 18 15 20 14 13 12 11 9 7 13 8 8 7 6 6 5 7 5 5 4 4 2
1 7 7 5 5 7 10 7 5 18 22 20 22 22 23 22 21 24 24 22 25 24 21 17 14 9 7 17 13 13 15 10 4 6 7 7 5 8 8 7 8 6 6 6 7 6 6 3 3
8 7 8 5 1 3 7 8 12 11 13 18 18 21 22 22 22 21 20 20 18 20 20 19 13 6 9 15 19 17 23 21 4 9 8 7 6 6 7 8 8 6 7 8 7 6 8 6 6
11 9 3 4 1 5 11 18 7 13 14 16 18 20 21 21 21 20 21 21 19 18 19 14 16 10 9 5 16 17 23 23 21 7 8 9 7 5 7 9 7 8 7 8 7 7 7 7 6
5 0 4 2 2 3 11 8 9 18 24 24 22 21 24 24 23 27 21 21 20 18 12 13 12 15 7 2 14 13 12 18 23 9 8 9 9 8 9 9 9 8 9 8 8 6 5 7 6
6 5 4 1 5 5 7 16 21 20 23 24 24 25 27 26 23 24 24 21 20 24 22 8 7 1 4 7 12 10 7 29 31 29 9 8 8 7 10 12 10 7 6 7 8 6 7 6 5
7 4 6 5 1 2 14 10 9 22 24 23 25 26 25 25 26 24 23 22 17 17 19 22 18 13 7 8 7 13 13 20 17 13 11 11 7 9 12 9 10 7 5 3 4 5 6 7 4
7 6 6 0 1 1 4 4 12 14 16 18 21 23 25 26 26 24 25 25 23 20 18 19 21 21 19 18 15 14 16 18 17 7 8 11 11 15 13 12 11 8 9 7 7 7 7 7 7
11 7 6 5 6 3 4 3 10 15 16 17 17 20 21 23 25 25 25 26 23 22 20 18 19 21 20 20 19 16 15 17 16 5 10 13 12 12 10 13 14 12 9 7 8 10 8 8 7
Wind_Direction
258 211 168 9 55 47 352 329 325 288 320 1 75 76 81 31 119 177 130 126 122 129 137 131 132 130 132 130 130 129 122 120 119 119 117 115 112 110 112 108 106 103 99 97 95 87 77 65 45
267 292 124 290 97 94 319 314 294 278 282 305 88 89 60 73 77 120 119 128 128 133 136 135 136 136 133 133 135 135 129 126 125 125 123 119 116 115 108 105 107 108 107 103 94 82 67 43 12
214 188 117 163 132 161 173 184 249 272 276 303 83 38 69 94 120 112 123 131 128 123 133 141 137 137 138 138 138 135 132 133 133 132 128 125 124 124 122 119 115 113 109 104 96 86 58 6 336
283 79 298 169 196 230 151 192 183 288 303 354 116 59 59 134 106 128 133 136 121 118 128 141 141 140 140 140 139 138 138 139 139 138 134 135 135 132 127 126 122 125 119 105 92 74 17 327 318
237 263 248 285 275 142 154 188 285 172 138 72 103 112 54 91 117 132 138 133 121 121 135 140 143 143 143 143 142 143 143 142 143 144 143 146 142 140 139 139 138 135 126 134 310 315 320 305 293
319 32 331 297 342 139 149 140 194 27 6 155 102 113 76 134 128 141 139 127 127 129 136 144 145 148 147 148 147 147 147 147 151 151 152 156 153 160 158 159 160 168 173 231 264 281 281 278 280
231 321 276 283 292 119 186 166 166 198 137 213 148 116 149 138 138 142 123 125 126 130 131 137 146 155 151 149 150 150 151 157 156 162 160 166 170 179 179 182 192 207 214 248 266 266 263 270 278
303 360 297 282 303 118 140 158 177 154 213 304 144 155 162 180 148 141 126 130 132 130 136 148 145 146 145 155 156 155 160 163 166 171 170 176 187 199 195 201 210 218 220 236 249 255 262 271 280
289 333 273 277 291 339 160 131 184 271 12 328 301 142 150 154 147 142 138 142 137 143 146 153 156 161 156 150 166 163 171 174 174 182 184 189 199 212 209 209 219 220 217 223 236 247 255 262 271
247 255 262 269 292 322 71 112 159 163 104 27 24 112 139 152 166 170 152 153 152 153 160 160 162 170 166 163 161 161 180 174 178 185 194 200 213 211 208 212 220 222 222 228 241 249 255 261 256
254 250 274 281 284 300 68 68 156 140 123 115 116 59 151 166 174 174 166 162 163 166 164 167 167 175 173 160 159 170 182 183 192 199 194 209 213 226 212 218 220 212 229 232 243 258 244 242 239
235 263 266 277 286 307 29 149 157 43 132 145 144 139 158 238 206 186 178 166 165 168 172 172 173 173 176 160 169 177 181 191 195 205 199 204 208 220 207 200 197 203 222 221 240 250 241 245 244
242 253 263 271 278 249 214 288 200 142 164 150 183 169 181 180 229 204 181 174 162 172 174 173 173 176 167 169 177 180 191 192 197 196 198 198 211 215 201 205 180 203 214 222 226 231 206 223 193
253 254 255 263 277 299 262 216 313 182 151 159 159 184 192 193 210 217 184 180 168 165 168 167 176 175 159 173 183 189 189 196 194 193 193 197 195 205 203 198 237 240 218 252 281 265 14 334 62
287 293 300 274 251 254 289 288 257 160 152 172 190 197 184 194 211 198 187 174 168 170 155 164 174 175 159 183 189 189 189 193 191 187 185 190 186 192 198 179 221 237 240 247 247 15 342 15 12
306 327 312 286 299 257 139 255 266 207 156 182 205 194 195 204 200 188 174 169 167 158 159 166 174 180 170 169 190 182 180 172 179 173 177 187 186 184 188 187 215 241 232 182 58 62 49 53 44
295 232 248 265 244 227 197 235 262 284 266 182 193 204 202 203 193 190 175 174 173 168 164 168 170 179 180 171 179 193 194 186 186 180 174 182 179 180 171 193 217 238 195 96 93 75 120 50 341
250 233 267 242 258 233 196 213 230 244 254 251 240 190 188 191 196 187 184 179 175 171 175 173 169 177 180 174 163 193 265 237 197 202 188 185 184 180 180 189 189 181 147 133 101 121 358 105 310
250 293 320 308 320 41 107 124 232 258 343 343 336 248 182 181 206 193 187 183 181 176 175 178 165 176 171 172 179 193 212 207 210 192 187 189 191 189 183 194 195 176 165 157 141 111 73 14 91
3 357 316 310 315 346 312 349 352 355 322 315 322 338 293 330 35 327 194 182 182 183 185 182 181 173 180 184 186 195 200 211 209 209 198 183 185 194 195 189 188 167 145 141 132 131 118 78 93
323 255 269 261 293 332 2 350 334 304 314 349 36 45 40 35 35 24 25 26 336 227 189 190 187 177 182 188 177 159 128 183 197 213 207 193 184 187 195 194 174 161 143 143 149 140 130 142 312
272 256 287 306 50 266 65 288 352 38 52 36 34 30 34 31 32 37 35 32 26 10 13 350 325 202 185 179 182 185 191 201 210 205 206 193 184 180 158 160 153 144 138 138 141 131 126 114 126
360 10 359 344 351 39 310 78 288 39 46 37 32 25 26 28 28 30 29 35 30 27 15 1 347 319 323 322 199 194 196 202 179 195 175 178 148 141 148 148 132 140 140 135 136 124 120 122 125
313 341 329 327 67 304 246 132 19 35 40 36 32 27 22 20 20 25 28 28 39 28 20 10 351 31 42 43 333 14 356 323 233 180 171 168 159 158 144 141 148 134 135 144 136 128 120 121 105
26 26 291 325 10 209 90 58 90 61 51 48 30 19 16 16 14 12 23 23 23 35 28 22 7 1 16 24 298 324 332 323 278 208 172 168 179 156 158 149 144 145 148 144 136 129 123 124 117
348 315 115 299 342 301 72 122 85 47 35 29 22 19 11 15 7 356 23 19 21 24 36 32 16 352 16 120 217 278 313 318 288 250 179 177 184 167 150 135 156 149 150 139 132 130 121 121 121
330 55 249 350 297 38 97 104 62 25 25 17 17 13 5 359 6 3 6 19 9 15 10 11 31 312 251 253 248 269 283 291 261 252 193 181 176 154 148 150 144 152 152 147 136 133 131 126 124
89 12 18 354 258 251 91 62 17 12 11 7 7 7 2 358 360 358 353 5 26 11 3 0 358 339 335 350 331 294 278 291 280 260 210 178 158 138 143 124 138 135 157 168 136 132 128 121 129
19 23 2 30 83 116 111 75 36 25 12 5 14 8 357 354 353 353 350 353 360 3 4 352 348 343 338 336 335 325 322 316 299 233 170 160 148 146 152 151 152 175 160 158 152 141 131 123 129
81 75 51 87 345 15 108 130 62 32 12 33 15 6 357 353 349 348 348 343 346 350 351 346 338 332 328 327 324 318 320 318 299 209 149 146 159 148 157 162 154 162 179 171 160 145 145 149 139